Time,TemperatureF,DewpointF,PressureIn,WindDirection,WindDirectionDegrees,WindSpeedMPH,WindSpeedGustMPH,Humidity,HourlyPrecipIn,Conditions,Clouds,dailyrainin,SoftwareType,DateUTC
2013-01-22 00:00:00,26.6,13.8,30.19,South,183,1.0,12.0,58,0.00,,---,0.00,VWS V14.00,2013-01-22 05:00:00,
2013-01-22 00:03:00,26.5,13.7,30.18,SSE,149,4.0,12.0,58,0.00,,---,0.00,VWS V14.00,2013-01-22 05:03:00,
2013-01-22 00:08:00,26.3,13.9,30.19,SSW,202,0.0,7.0,59,0.00,,---,0.00,VWS V14.00,2013-01-22 05:08:00,
2013-01-22 00:13:00,26.2,13.4,30.19,South,169,3.0,13.0,58,0.00,,---,0.00,VWS V14.00,2013-01-22 05:13:00,
2013-01-22 00:18:00,26.2,13.4,30.18,South,178,4.0,13.0,58,0.00,,---,0.00,VWS V14.00,2013-01-22 05:18:00,
2013-01-22 00:23:00,26.1,13.8,30.18,South,178,4.0,13.0,59,0.00,,---,0.00,VWS V14.00,2013-01-22 05:23:00,
2013-01-22 00:28:00,26.0,13.6,30.18,SW,221,6.0,13.0,59,0.00,,---,0.00,VWS V14.00,2013-01-22 05:28:00,
2013-01-22 00:33:00,25.9,13.9,30.18,SSE,163,4.0,13.0,60,0.00,,---,0.00,VWS V14.00,2013-01-22 05:33:00,
2013-01-22 00:38:00,25.7,13.8,30.18,SSE,162,4.0,14.0,60,0.00,,---,0.00,VWS V14.00,2013-01-22 05:38:00,
2013-01-22 00:43:00,25.6,13.7,30.18,SSW,205,4.0,16.0,60,0.00,,---,0.00,VWS V14.00,2013-01-22 05:43:00,
2013-01-22 00:48:00,25.5,13.6,30.18,SE,141,4.0,16.0,60,0.00,,---,0.00,VWS V14.00,2013-01-22 05:48:00,
2013-01-22 00:53:00,25.4,13.5,30.19,SSW,199,1.0,16.0,60,0.00,,---,0.00,VWS V14.00,2013-01-22 05:53:00,
2013-01-22 00:58:00,25.3,13.8,30.18,SSE,153,7.0,16.0,61,0.00,,---,0.00,VWS V14.00,2013-01-22 05:58:00,
2013-01-22 01:03:00,25.2,14.0,30.18,SSE,160,2.0,16.0,62,0.00,,---,0.00,VWS V14.00,2013-01-22 06:03:00,
2013-01-22 01:08:00,25.1,13.9,30.17,SSE,163,0.0,6.0,62,0.00,,---,0.00,VWS V14.00,2013-01-22 06:08:00,
2013-01-22 01:13:00,24.9,14.1,30.17,South,175,2.0,10.0,63,0.00,,---,0.00,VWS V14.00,2013-01-22 06:13:00,
2013-01-22 01:18:00,24.8,13.6,30.17,SSE,148,4.0,14.0,62,0.00,,---,0.00,VWS V14.00,2013-01-22 06:18:00,
2013-01-22 01:23:00,24.7,14.3,30.17,SW,226,0.0,14.0,64,0.00,,---,0.00,VWS V14.00,2013-01-22 06:23:00,
2013-01-22 01:28:00,24.5,13.7,30.18,SSW,209,3.0,14.0,63,0.00,,---,0.00,VWS V14.00,2013-01-22 06:28:00,
2013-01-22 01:33:00,24.4,13.6,30.18,South,178,13.0,14.0,63,0.00,,---,0.00,VWS V14.00,2013-01-22 06:33:00,
2013-01-22 01:38:00,24.3,14.2,30.18,SE,129,2.0,10.0,65,0.00,,---,0.00,VWS V14.00,2013-01-22 06:38:00,
2013-01-22 01:43:00,24.2,14.1,30.18,SSW,208,0.0,10.0,65,0.00,,---,0.00,VWS V14.00,2013-01-22 06:43:00,
2013-01-22 01:48:00,24.2,13.8,30.18,South,171,0.0,10.0,64,0.00,,---,0.00,VWS V14.00,2013-01-22 06:48:00,
2013-01-22 01:53:00,24.1,13.7,30.19,East,100,0.0,10.0,64,0.00,,---,0.00,VWS V14.00,2013-01-22 06:53:00,
2013-01-22 01:58:00,24.0,13.2,30.18,SW,234,2.0,11.0,63,0.00,,---,0.00,VWS V14.00,2013-01-22 06:58:00,
2013-01-22 02:03:00,23.9,12.4,30.19,South,186,3.0,12.0,61,0.00,,---,0.00,VWS V14.00,2013-01-22 07:03:00,
2013-01-22 02:08:00,23.9,12.4,30.19,SSE,152,4.0,5.0,61,0.00,,---,0.00,VWS V14.00,2013-01-22 07:08:00,
2013-01-22 02:13:00,23.9,11.7,30.19,SSE,147,0.0,6.0,59,0.00,,---,0.00,VWS V14.00,2013-01-22 07:13:00,
2013-01-22 02:18:00,23.8,11.6,30.19,SSE,155,3.0,6.0,59,0.00,,---,0.00,VWS V14.00,2013-01-22 07:18:00,
2013-01-22 02:23:00,23.7,11.5,30.19,South,186,3.0,9.0,59,0.00,,---,0.00,VWS V14.00,2013-01-22 07:23:00,
2013-01-22 02:28:00,23.6,12.1,30.19,SSW,213,6.0,9.0,61,0.00,,---,0.00,VWS V14.00,2013-01-22 07:28:00,
2013-01-22 02:33:00,23.6,11.0,30.19,SSW,192,1.0,9.0,58,0.00,,---,0.00,VWS V14.00,2013-01-22 07:33:00,
2013-01-22 02:38:00,23.5,11.3,30.19,East,96,0.0,7.0,59,0.00,,---,0.00,VWS V14.00,2013-01-22 07:38:00,
2013-01-22 02:43:00,23.4,11.2,30.19,SSE,148,0.0,8.0,59,0.00,,---,0.00,VWS V14.00,2013-01-22 07:43:00,
2013-01-22 02:48:00,23.3,11.1,30.19,SE,133,4.0,8.0,59,0.00,,---,0.00,VWS V14.00,2013-01-22 07:48:00,
2013-01-22 02:53:00,23.2,10.2,30.19,ESE,110,0.0,8.0,57,0.00,,---,0.00,VWS V14.00,2013-01-22 07:53:00,
2013-01-22 02:58:00,23.1,10.1,30.19,South,175,1.0,13.0,57,0.00,,---,0.00,VWS V14.00,2013-01-22 07:58:00,
2013-01-22 03:03:00,23.0,10.8,30.20,SE,146,0.0,13.0,59,0.00,,---,0.00,VWS V14.00,2013-01-22 08:03:00,
2013-01-22 03:08:00,22.9,11.1,30.21,ENE,64,4.0,4.0,60,0.00,,---,0.00,VWS V14.00,2013-01-22 08:08:00,
2013-01-22 03:13:00,22.8,10.6,30.21,SSE,153,6.0,12.0,59,0.00,,---,0.00,VWS V14.00,2013-01-22 08:13:00,
2013-01-22 03:18:00,22.7,10.5,30.21,ESE,116,3.0,12.0,59,0.00,,---,0.00,VWS V14.00,2013-01-22 08:18:00,
2013-01-22 03:23:00,22.5,10.4,30.21,SSE,147,1.0,12.0,59,0.00,,---,0.00,VWS V14.00,2013-01-22 08:23:00,
2013-01-22 03:28:00,22.4,10.3,30.21,ESE,117,0.0,12.0,59,0.00,,---,0.00,VWS V14.00,2013-01-22 08:28:00,
2013-01-22 03:33:00,22.4,10.3,30.21,SE,128,0.0,12.0,59,0.00,,---,0.00,VWS V14.00,2013-01-22 08:33:00,
2013-01-22 03:38:00,22.3,10.2,30.21,East,83,3.0,3.0,59,0.00,,---,0.00,VWS V14.00,2013-01-22 08:38:00,
2013-01-22 03:43:00,22.1,10.0,30.21,East,87,0.0,4.0,59,0.00,,---,0.00,VWS V14.00,2013-01-22 08:43:00,
2013-01-22 03:48:00,22.1,10.0,30.21,NE,51,3.0,4.0,59,0.00,,---,0.00,VWS V14.00,2013-01-22 08:48:00,
2013-01-22 03:53:00,21.9,9.4,30.21,ENE,74,1.0,5.0,58,0.00,,---,0.00,VWS V14.00,2013-01-22 08:53:00,
2013-01-22 03:58:00,21.8,8.9,30.21,East,88,0.0,5.0,57,0.00,,---,0.00,VWS V14.00,2013-01-22 08:58:00,
2013-01-22 04:03:00,21.7,8.4,30.21,East,92,0.0,5.0,56,0.00,,---,0.00,VWS V14.00,2013-01-22 09:03:00,
2013-01-22 04:08:00,21.6,8.7,30.22,East,92,0.0,1.0,57,0.00,,---,0.00,VWS V14.00,2013-01-22 09:08:00,
2013-01-22 04:13:00,21.5,8.2,30.22,SE,138,3.0,4.0,56,0.00,,---,0.00,VWS V14.00,2013-01-22 09:13:00,
2013-01-22 04:18:00,21.4,8.1,30.22,SSW,199,0.0,4.0,56,0.00,,---,0.00,VWS V14.00,2013-01-22 09:18:00,
2013-01-22 04:23:00,21.3,8.1,30.22,ESE,111,2.0,4.0,56,0.00,,---,0.00,VWS V14.00,2013-01-22 09:23:00,
2013-01-22 04:28:00,21.2,8.0,30.22,ENE,71,0.0,4.0,56,0.00,,---,0.00,VWS V14.00,2013-01-22 09:28:00,
2013-01-22 04:33:00,21.1,7.5,30.22,ENE,78,1.0,4.0,55,0.00,,---,0.00,VWS V14.00,2013-01-22 09:33:00,
2013-01-22 04:38:00,21.0,7.4,30.22,East,82,0.0,3.0,55,0.00,,---,0.00,VWS V14.00,2013-01-22 09:38:00,
2013-01-22 04:43:00,21.0,7.8,30.22,ESE,102,0.0,5.0,56,0.00,,---,0.00,VWS V14.00,2013-01-22 09:43:00,
2013-01-22 04:48:00,20.9,7.7,30.22,East,94,0.0,5.0,56,0.00,,---,0.00,VWS V14.00,2013-01-22 09:48:00,
2013-01-22 04:53:00,20.9,8.5,30.23,NE,53,0.0,5.0,58,0.00,,---,0.00,VWS V14.00,2013-01-22 09:53:00,
2013-01-22 04:58:00,20.8,8.8,30.22,NE,48,2.0,5.0,59,0.00,,---,0.00,VWS V14.00,2013-01-22 09:58:00,
2013-01-22 05:03:00,20.7,7.9,30.23,East,87,0.0,5.0,57,0.00,,---,0.00,VWS V14.00,2013-01-22 10:03:00,
2013-01-22 05:08:00,20.7,7.5,30.24,East,85,0.0,0.0,56,0.00,,---,0.00,VWS V14.00,2013-01-22 10:08:00,
2013-01-22 05:13:00,20.6,8.2,30.24,East,85,0.0,2.0,58,0.00,,---,0.00,VWS V14.00,2013-01-22 10:13:00,
2013-01-22 05:18:00,20.6,8.6,30.24,East,85,2.0,2.0,59,0.00,,---,0.00,VWS V14.00,2013-01-22 10:18:00,
2013-01-22 05:23:00,20.5,8.1,30.25,East,84,0.0,2.0,58,0.00,,---,0.00,VWS V14.00,2013-01-22 10:23:00,
2013-01-22 05:28:00,20.4,7.6,30.25,SSE,161,0.0,4.0,57,0.00,,---,0.00,VWS V14.00,2013-01-22 10:28:00,
2013-01-22 05:33:00,20.3,7.1,30.25,ESE,103,0.0,4.0,56,0.00,,---,0.00,VWS V14.00,2013-01-22 10:33:00,
2013-01-22 05:38:00,20.2,8.2,30.25,ENE,65,4.0,4.0,59,0.00,,---,0.00,VWS V14.00,2013-01-22 10:38:00,
2013-01-22 05:43:00,20.2,8.2,30.25,ENE,68,0.0,4.0,59,0.00,,---,0.00,VWS V14.00,2013-01-22 10:43:00,
2013-01-22 05:48:00,20.1,7.7,30.25,ENE,68,0.0,4.0,58,0.00,,---,0.00,VWS V14.00,2013-01-22 10:48:00,
2013-01-22 05:53:00,20.0,7.2,30.25,SE,142,4.0,4.0,57,0.00,,---,0.00,VWS V14.00,2013-01-22 10:53:00,
2013-01-22 05:58:00,19.9,6.8,30.25,SSE,147,1.0,6.0,56,0.00,,---,0.00,VWS V14.00,2013-01-22 10:58:00,
2013-01-22 06:03:00,19.8,6.3,30.25,South,190,4.0,6.0,55,0.00,,---,0.00,VWS V14.00,2013-01-22 11:03:00,
2013-01-22 06:08:00,19.7,6.2,30.26,South,178,0.0,3.0,55,0.00,,---,0.00,VWS V14.00,2013-01-22 11:08:00,
2013-01-22 06:13:00,19.7,6.2,30.27,East,97,0.0,5.0,55,0.00,,---,0.00,VWS V14.00,2013-01-22 11:13:00,
2013-01-22 06:18:00,19.7,6.2,30.27,ESE,115,2.0,13.0,55,0.00,,---,0.00,VWS V14.00,2013-01-22 11:18:00,
2013-01-22 06:23:00,19.7,6.6,30.27,SSE,155,0.0,13.0,56,0.00,,---,0.00,VWS V14.00,2013-01-22 11:23:00,
2013-01-22 06:28:00,19.6,6.1,30.27,SSE,160,4.0,15.0,55,0.00,,---,0.00,VWS V14.00,2013-01-22 11:28:00,
2013-01-22 06:33:00,19.5,6.0,30.27,SSE,152,7.0,15.0,55,0.00,,---,0.00,VWS V14.00,2013-01-22 11:33:00,
2013-01-22 06:38:00,19.4,6.3,30.27,South,173,5.0,6.0,56,0.00,,---,0.00,VWS V14.00,2013-01-22 11:38:00,
2013-01-22 06:43:00,19.4,5.9,30.28,ESE,111,0.0,18.0,55,0.00,,---,0.00,VWS V14.00,2013-01-22 11:43:00,
2013-01-22 06:48:00,19.4,6.3,30.27,SE,144,4.0,18.0,56,0.00,,---,0.00,VWS V14.00,2013-01-22 11:48:00,
2013-01-22 06:53:00,19.3,6.2,30.28,SSE,165,4.0,18.0,56,0.00,,---,0.00,VWS V14.00,2013-01-22 11:53:00,
2013-01-22 06:58:00,19.2,6.5,30.28,SSE,159,5.0,18.0,57,0.00,,---,0.00,VWS V14.00,2013-01-22 11:58:00,
2013-01-22 07:03:00,19.1,6.0,30.28,South,179,2.0,18.0,56,0.00,,---,0.00,VWS V14.00,2013-01-22 12:03:00,
2013-01-22 07:08:00,19.1,6.4,30.29,South,187,0.0,1.0,57,0.00,,---,0.00,VWS V14.00,2013-01-22 12:08:00,
2013-01-22 07:13:00,18.9,5.8,30.29,SSE,156,8.0,12.0,56,0.00,,---,0.00,VWS V14.00,2013-01-22 12:13:00,
2013-01-22 07:18:00,18.9,6.2,30.29,SSE,147,2.0,13.0,57,0.00,,---,0.00,VWS V14.00,2013-01-22 12:18:00,
2013-01-22 07:23:00,18.8,6.1,30.29,SE,144,10.0,13.0,57,0.00,,---,0.00,VWS V14.00,2013-01-22 12:23:00,
2013-01-22 07:28:00,18.6,5.9,30.29,South,173,4.0,13.0,57,0.00,,---,0.00,VWS V14.00,2013-01-22 12:28:00,
2013-01-22 07:33:00,18.5,5.8,30.29,SSE,155,4.0,13.0,57,0.00,,---,0.00,VWS V14.00,2013-01-22 12:33:00,
2013-01-22 07:38:00,18.4,5.7,30.30,SSW,206,7.0,13.0,57,0.00,,---,0.00,VWS V14.00,2013-01-22 12:38:00,
2013-01-22 07:43:00,18.3,5.6,30.30,South,182,2.0,13.0,57,0.00,,---,0.00,VWS V14.00,2013-01-22 12:43:00,
2013-01-22 07:48:00,18.2,5.9,30.30,SE,125,3.0,13.0,58,0.00,,---,0.00,VWS V14.00,2013-01-22 12:48:00,
2013-01-22 07:53:00,18.2,5.5,30.30,SSE,157,2.0,14.0,57,0.00,,---,0.00,VWS V14.00,2013-01-22 12:53:00,
2013-01-22 07:58:00,18.1,5.4,30.30,SSE,150,5.0,14.0,57,0.00,,---,0.00,VWS V14.00,2013-01-22 12:58:00,
2013-01-22 08:03:00,18.1,5.4,30.30,SSE,165,10.0,14.0,57,0.00,,---,0.00,VWS V14.00,2013-01-22 13:03:00,
2013-01-22 08:08:00,18.1,5.4,30.31,SSE,148,2.0,13.0,57,0.00,,---,0.00,VWS V14.00,2013-01-22 13:08:00,
2013-01-22 08:13:00,18.2,5.9,30.32,SSE,148,3.0,13.0,58,0.00,,---,0.00,VWS V14.00,2013-01-22 13:13:00,
2013-01-22 08:18:00,18.2,5.9,30.31,SE,143,10.0,13.0,58,0.00,,---,0.00,VWS V14.00,2013-01-22 13:18:00,
2013-01-22 08:23:00,18.3,6.4,30.32,SSE,153,2.0,17.0,59,0.00,,---,0.00,VWS V14.00,2013-01-22 13:23:00,
2013-01-22 08:28:00,18.3,5.6,30.32,SSE,151,7.0,17.0,57,0.00,,---,0.00,VWS V14.00,2013-01-22 13:28:00,
2013-01-22 08:33:00,18.4,5.7,30.33,SSE,148,4.0,17.0,57,0.00,,---,0.00,VWS V14.00,2013-01-22 13:33:00,
2013-01-22 08:38:00,18.6,5.9,30.32,WSW,250,5.0,13.0,57,0.00,,---,0.00,VWS V14.00,2013-01-22 13:38:00,
2013-01-22 08:43:00,18.9,5.8,30.32,SSE,161,4.0,13.0,56,0.00,,---,0.00,VWS V14.00,2013-01-22 13:43:00,
2013-01-22 08:48:00,19.0,5.9,30.32,SSE,161,6.0,13.0,56,0.00,,---,0.00,VWS V14.00,2013-01-22 13:48:00,
2013-01-22 08:53:00,19.2,6.5,30.32,South,190,2.0,13.0,57,0.00,,---,0.00,VWS V14.00,2013-01-22 13:53:00,
2013-01-22 08:58:00,19.5,6.4,30.33,SSE,159,2.0,13.0,56,0.00,,---,0.00,VWS V14.00,2013-01-22 13:58:00,
2013-01-22 09:03:00,19.7,6.9,30.33,ESE,121,3.0,13.0,57,0.00,,---,0.00,VWS V14.00,2013-01-22 14:03:00,
2013-01-22 09:08:00,19.8,6.3,30.34,SSE,152,5.0,16.0,55,0.00,,---,0.00,VWS V14.00,2013-01-22 14:08:00,
2013-01-22 09:13:00,19.9,6.3,30.34,South,172,10.0,16.0,55,0.00,,---,0.00,VWS V14.00,2013-01-22 14:13:00,
2013-01-22 09:18:00,20.1,6.5,30.34,South,173,7.0,16.0,55,0.00,,---,0.00,VWS V14.00,2013-01-22 14:18:00,
2013-01-22 09:23:00,20.4,6.8,30.35,South,180,3.0,16.0,55,0.00,,---,0.00,VWS V14.00,2013-01-22 14:23:00,
2013-01-22 09:28:00,20.8,7.2,30.34,SE,146,4.0,16.0,55,0.00,,---,0.00,VWS V14.00,2013-01-22 14:28:00,
2013-01-22 09:33:00,20.7,6.7,30.34,SE,134,3.0,16.0,54,0.00,,---,0.00,VWS V14.00,2013-01-22 14:33:00,
2013-01-22 09:38:00,21.1,7.1,30.34,SSE,150,5.0,11.0,54,0.00,,---,0.00,VWS V14.00,2013-01-22 14:38:00,
2013-01-22 09:43:00,21.5,7.4,30.34,SE,146,0.0,11.0,54,0.00,,---,0.00,VWS V14.00,2013-01-22 14:43:00,
2013-01-22 09:48:00,21.7,8.0,30.34,SSW,211,4.0,13.0,55,0.00,,---,0.00,VWS V14.00,2013-01-22 14:48:00,
2013-01-22 09:53:00,21.9,7.8,30.34,SSE,165,2.0,15.0,54,0.00,,---,0.00,VWS V14.00,2013-01-22 14:53:00,
2013-01-22 09:58:00,22.1,7.2,30.35,South,170,12.0,15.0,52,0.00,,---,0.00,VWS V14.00,2013-01-22 14:58:00,
2013-01-22 10:03:00,22.3,7.8,30.35,South,175,1.0,15.0,53,0.00,,---,0.00,VWS V14.00,2013-01-22 15:03:00,
2013-01-22 10:08:00,22.7,7.7,30.34,SSE,165,3.0,15.0,52,0.00,,---,0.00,VWS V14.00,2013-01-22 15:08:00,
2013-01-22 10:13:00,22.9,7.5,30.35,SSE,148,0.0,16.0,51,0.00,,---,0.00,VWS V14.00,2013-01-22 15:13:00,
2013-01-22 10:18:00,22.7,7.3,30.35,SE,144,5.0,16.0,51,0.00,,---,0.00,VWS V14.00,2013-01-22 15:18:00,
2013-01-22 10:23:00,23.2,8.6,30.36,SW,214,13.0,16.0,53,0.00,,---,0.00,VWS V14.00,2013-01-22 15:23:00,
2013-01-22 10:28:00,23.6,7.7,30.35,SSE,150,9.0,16.0,50,0.00,,---,0.00,VWS V14.00,2013-01-22 15:28:00,
2013-01-22 10:33:00,23.6,8.6,30.36,SSE,154,8.0,16.0,52,0.00,,---,0.00,VWS V14.00,2013-01-22 15:33:00,
2013-01-22 10:38:00,23.6,7.3,30.36,SE,132,4.0,12.0,49,0.00,,---,0.00,VWS V14.00,2013-01-22 15:38:00,
2013-01-22 10:43:00,23.6,6.8,30.36,SSE,165,11.0,16.0,48,0.00,,---,0.00,VWS V14.00,2013-01-22 15:43:00,
2013-01-22 10:48:00,23.7,6.4,30.36,SSE,156,7.0,16.0,47,0.00,,---,0.00,VWS V14.00,2013-01-22 15:48:00,
2013-01-22 10:53:00,24.3,7.4,30.36,SSW,196,9.0,16.0,48,0.00,,---,0.00,VWS V14.00,2013-01-22 15:53:00,
2013-01-22 10:58:00,24.5,7.2,30.36,SSE,163,5.0,16.0,47,0.00,,---,0.00,VWS V14.00,2013-01-22 15:58:00,
2013-01-22 11:03:00,24.5,6.2,30.37,SE,140,7.0,16.0,45,0.00,,---,0.00,VWS V14.00,2013-01-22 16:03:00,
2013-01-22 11:08:00,25.1,6.8,30.38,SSW,196,2.0,12.0,45,0.00,,---,0.00,VWS V14.00,2013-01-22 16:08:00,
2013-01-22 11:13:00,25.6,6.2,30.37,SE,130,2.0,16.0,43,0.00,,---,0.00,VWS V14.00,2013-01-22 16:13:00,
2013-01-22 11:18:00,25.4,6.0,30.38,SE,143,11.0,16.0,43,0.00,,---,0.00,VWS V14.00,2013-01-22 16:18:00,
2013-01-22 11:23:00,25.6,6.7,30.37,ESE,108,1.0,16.0,44,0.00,,---,0.00,VWS V14.00,2013-01-22 16:23:00,
2013-01-22 11:28:00,26.5,6.5,30.37,SSE,157,9.0,16.0,42,0.00,,---,0.00,VWS V14.00,2013-01-22 16:28:00,
2013-01-22 11:33:00,26.7,5.6,30.37,South,177,5.0,16.0,40,0.00,,---,0.00,VWS V14.00,2013-01-22 16:33:00,
2013-01-22 11:38:00,26.6,6.1,30.37,South,175,8.0,15.0,41,0.00,,---,0.00,VWS V14.00,2013-01-22 16:38:00,
2013-01-22 11:43:00,26.8,5.2,30.37,SE,125,3.0,15.0,39,0.00,,---,0.00,VWS V14.00,2013-01-22 16:43:00,
2013-01-22 11:48:00,27.3,6.2,30.36,SSE,155,9.0,15.0,40,0.00,,---,0.00,VWS V14.00,2013-01-22 16:48:00,
2013-01-22 11:53:00,27.8,4.9,30.35,South,187,7.0,15.0,37,0.00,,---,0.00,VWS V14.00,2013-01-22 16:53:00,
2013-01-22 11:58:00,28.3,5.4,30.35,West,276,0.0,15.0,37,0.00,,---,0.00,VWS V14.00,2013-01-22 16:58:00,
2013-01-22 12:03:00,28.2,4.7,30.35,South,187,10.0,15.0,36,0.00,,---,0.00,VWS V14.00,2013-01-22 17:03:00,
2013-01-22 12:08:00,27.5,3.5,30.36,SSE,149,7.0,19.0,35,0.00,,---,0.00,VWS V14.00,2013-01-22 17:08:00,
2013-01-22 12:13:00,26.9,2.9,30.36,SSE,152,3.0,19.0,35,0.00,,---,0.00,VWS V14.00,2013-01-22 17:13:00,
2013-01-22 12:18:00,27.7,3.6,30.36,South,173,10.0,19.0,35,0.00,,---,0.00,VWS V14.00,2013-01-22 17:18:00,
2013-01-22 12:23:00,28.5,3.7,30.35,ESE,118,4.0,19.0,34,0.00,,---,0.00,VWS V14.00,2013-01-22 17:23:00,
2013-01-22 12:28:00,28.5,3.1,30.34,SSE,150,5.0,19.0,33,0.00,,---,0.00,VWS V14.00,2013-01-22 17:28:00,
2013-01-22 12:33:00,28.1,2.7,30.34,SSE,155,15.0,19.0,33,0.00,,---,0.00,VWS V14.00,2013-01-22 17:33:00,
2013-01-22 12:38:00,28.2,2.8,30.35,SSE,157,8.0,9.0,33,0.00,,---,0.00,VWS V14.00,2013-01-22 17:38:00,
2013-01-22 12:43:00,28.7,2.6,30.34,SE,140,5.0,15.0,32,0.00,,---,0.00,VWS V14.00,2013-01-22 17:43:00,
2013-01-22 12:48:00,28.8,2.7,30.34,ESE,123,7.0,17.0,32,0.00,,---,0.00,VWS V14.00,2013-01-22 17:48:00,
2013-01-22 12:53:00,28.7,1.9,30.33,SE,135,5.0,17.0,31,0.00,,---,0.00,VWS V14.00,2013-01-22 17:53:00,
2013-01-22 12:58:00,29.2,3.7,30.34,SSE,168,0.0,17.0,33,0.00,,---,0.00,VWS V14.00,2013-01-22 17:58:00,
2013-01-22 13:03:00,29.6,2.0,30.33,SE,145,15.0,17.0,30,0.00,,---,0.00,VWS V14.00,2013-01-22 18:03:00,
2013-01-22 13:08:00,29.4,2.5,30.33,SE,138,7.0,13.0,31,0.00,,---,0.00,VWS V14.00,2013-01-22 18:08:00,
2013-01-22 13:13:00,30.0,1.6,30.32,SSE,165,15.0,15.0,29,0.00,,---,0.00,VWS V14.00,2013-01-22 18:13:00,
2013-01-22 13:19:00,29.3,1.0,30.33,South,190,7.0,20.0,29,0.00,,---,0.00,VWS V14.00,2013-01-22 18:19:00,
2013-01-22 13:24:00,29.7,0.6,30.32,ESE,109,11.0,20.0,28,0.00,,---,0.00,VWS V14.00,2013-01-22 18:24:00,
2013-01-22 13:29:00,29.4,1.8,30.32,ESE,116,4.0,20.0,30,0.00,,---,0.00,VWS V14.00,2013-01-22 18:29:00,
2013-01-22 13:34:00,30.2,3.2,30.31,SSE,167,2.0,20.0,31,0.00,,---,0.00,VWS V14.00,2013-01-22 18:34:00,
2013-01-22 13:39:00,30.8,1.5,30.32,NNE,17,0.0,10.0,28,0.00,,---,0.00,VWS V14.00,2013-01-22 18:39:00,
2013-01-22 13:43:00,30.9,3.1,30.31,SSE,159,5.0,13.0,30,0.00,,---,0.00,VWS V14.00,2013-01-22 18:43:00,
2013-01-22 13:49:00,30.8,2.3,30.31,SSW,200,3.0,13.0,29,0.00,,---,0.00,VWS V14.00,2013-01-22 18:49:00,
2013-01-22 13:53:00,31.6,4.4,30.30,South,181,5.0,13.0,31,0.00,,---,0.00,VWS V14.00,2013-01-22 18:53:00,
2013-01-22 13:58:00,31.0,1.7,30.31,SE,139,12.0,15.0,28,0.00,,---,0.00,VWS V14.00,2013-01-22 18:58:00,
2013-01-22 14:03:00,30.6,2.9,30.31,SE,144,7.0,15.0,30,0.00,,---,0.00,VWS V14.00,2013-01-22 19:03:00,
2013-01-22 14:08:00,30.5,2.0,30.31,SSE,147,4.0,10.0,29,0.00,,---,0.00,VWS V14.00,2013-01-22 19:08:00,
2013-01-22 14:13:00,31.1,3.3,30.31,SSE,164,10.0,16.0,30,0.00,,---,0.00,VWS V14.00,2013-01-22 19:13:00,
2013-01-22 14:18:00,31.7,3.8,30.30,SSE,165,15.0,16.0,30,0.00,,---,0.00,VWS V14.00,2013-01-22 19:18:00,
2013-01-22 14:23:00,31.5,2.9,30.30,South,169,0.0,17.0,29,0.00,,---,0.00,VWS V14.00,2013-01-22 19:23:00,
2013-01-22 14:28:00,32.1,4.2,30.30,SE,126,6.0,17.0,30,0.00,,---,0.00,VWS V14.00,2013-01-22 19:28:00,
2013-01-22 14:33:00,32.8,4.8,30.29,South,183,3.0,17.0,30,0.00,,---,0.00,VWS V14.00,2013-01-22 19:33:00,
2013-01-22 14:38:00,32.6,4.6,30.29,SSE,159,2.0,10.0,30,0.00,,---,0.00,VWS V14.00,2013-01-22 19:38:00,
2013-01-22 14:43:00,33.0,5.7,30.29,East,86,2.0,10.0,31,0.00,,---,0.00,VWS V14.00,2013-01-22 19:43:00,
2013-01-22 14:48:00,32.9,4.9,30.29,SSE,152,1.0,14.0,30,0.00,,---,0.00,VWS V14.00,2013-01-22 19:48:00,
2013-01-22 14:53:00,33.1,5.8,30.29,SE,126,4.0,14.0,31,0.00,,---,0.00,VWS V14.00,2013-01-22 19:53:00,
2013-01-22 14:58:00,33.0,5.0,30.29,SE,141,6.0,16.0,30,0.00,,---,0.00,VWS V14.00,2013-01-22 19:58:00,
2013-01-22 15:03:00,32.6,5.3,30.29,SSE,152,10.0,16.0,31,0.00,,---,0.00,VWS V14.00,2013-01-22 20:03:00,
2013-01-22 15:08:00,32.7,5.4,30.29,SE,126,6.0,18.0,31,0.00,,---,0.00,VWS V14.00,2013-01-22 20:08:00,
2013-01-22 15:13:00,32.6,5.3,30.30,SSW,192,11.0,18.0,31,0.00,,---,0.00,VWS V14.00,2013-01-22 20:13:00,
2013-01-22 15:18:00,32.7,6.1,30.30,SSE,157,6.0,18.0,32,0.00,,---,0.00,VWS V14.00,2013-01-22 20:18:00,
2013-01-22 15:23:00,33.1,7.1,30.30,ESE,111,1.0,18.0,33,0.00,,---,0.00,VWS V14.00,2013-01-22 20:23:00,
2013-01-22 15:28:00,33.0,6.4,30.31,South,182,12.0,18.0,32,0.00,,---,0.00,VWS V14.00,2013-01-22 20:28:00,
2013-01-22 15:33:00,32.5,5.2,30.31,SSE,150,4.0,18.0,31,0.00,,---,0.00,VWS V14.00,2013-01-22 20:33:00,
2013-01-22 15:38:00,32.5,4.5,30.31,SE,127,7.0,15.0,30,0.00,,---,0.00,VWS V14.00,2013-01-22 20:38:00,
2013-01-22 15:43:00,32.0,3.3,30.31,SSE,148,13.0,16.0,29,0.00,,---,0.00,VWS V14.00,2013-01-22 20:43:00,
2013-01-22 15:48:00,31.3,3.5,30.32,ESE,119,5.0,16.0,30,0.00,,---,0.00,VWS V14.00,2013-01-22 20:48:00,
2013-01-22 15:53:00,31.5,3.7,30.32,SE,135,7.0,16.0,30,0.00,,---,0.00,VWS V14.00,2013-01-22 20:53:00,
2013-01-22 15:58:00,31.0,3.2,30.33,East,84,0.0,18.0,30,0.00,,---,0.00,VWS V14.00,2013-01-22 20:58:00,
2013-01-22 16:03:00,30.5,3.5,30.33,South,190,9.0,18.0,31,0.00,,---,0.00,VWS V14.00,2013-01-22 21:03:00,
2013-01-22 16:08:00,29.9,2.2,30.34,SSE,159,9.0,12.0,30,0.00,,---,0.00,VWS V14.00,2013-01-22 21:08:00,
2013-01-22 16:13:00,29.7,3.5,30.34,SE,136,11.0,14.0,32,0.00,,---,0.00,VWS V14.00,2013-01-22 21:13:00,
2013-01-22 16:18:00,29.3,2.4,30.34,South,170,3.0,14.0,31,0.00,,---,0.00,VWS V14.00,2013-01-22 21:18:00,
2013-01-22 16:23:00,28.9,2.8,30.34,SSE,163,1.0,14.0,32,0.00,,---,0.00,VWS V14.00,2013-01-22 21:23:00,
2013-01-22 16:28:00,28.5,2.4,30.34,SSE,155,2.0,14.0,32,0.00,,---,0.00,VWS V14.00,2013-01-22 21:28:00,
2013-01-22 16:31:00,28.5,2.4,30.34,SSE,163,11.0,14.0,32,0.00,,---,0.00,VWS V14.00,2013-01-22 21:31:00,
2013-01-22 16:36:00,28.3,2.9,30.35,SE,144,3.0,4.0,33,0.00,,---,0.00,VWS V14.00,2013-01-22 21:36:00,
2013-01-22 16:42:00,28.3,2.9,30.35,South,169,3.0,10.0,33,0.00,,---,0.00,VWS V14.00,2013-01-22 21:42:00,
2013-01-22 16:47:00,28.3,2.9,30.35,SSE,164,2.0,13.0,33,0.00,,---,0.00,VWS V14.00,2013-01-22 21:47:00,
2013-01-22 16:52:00,28.2,3.5,30.35,SSW,198,4.0,13.0,34,0.00,,---,0.00,VWS V14.00,2013-01-22 21:52:00,
2013-01-22 16:57:00,28.0,3.3,30.35,SSE,167,5.0,13.0,34,0.00,,---,0.00,VWS V14.00,2013-01-22 21:57:00,
2013-01-22 17:02:00,27.6,2.9,30.35,South,186,4.0,13.0,34,0.00,,---,0.00,VWS V14.00,2013-01-22 22:02:00,
2013-01-22 17:07:00,27.6,3.5,30.35,SSE,148,5.0,5.0,35,0.00,,---,0.00,VWS V14.00,2013-01-22 22:07:00,
2013-01-22 17:12:00,27.4,3.4,30.36,SSW,203,1.0,7.0,35,0.00,,---,0.00,VWS V14.00,2013-01-22 22:12:00,
2013-01-22 17:17:00,27.3,3.3,30.36,SSE,161,3.0,7.0,35,0.00,,---,0.00,VWS V14.00,2013-01-22 22:17:00,
2013-01-22 17:22:00,27.2,3.8,30.36,SSE,152,3.0,7.0,36,0.00,,---,0.00,VWS V14.00,2013-01-22 22:22:00,
2013-01-22 17:27:00,27.1,4.3,30.36,SSW,202,4.0,9.0,37,0.00,,---,0.00,VWS V14.00,2013-01-22 22:27:00,
2013-01-22 17:32:00,27.0,4.2,30.35,SSE,152,0.0,9.0,37,0.00,,---,0.00,VWS V14.00,2013-01-22 22:32:00,
2013-01-22 17:37:00,26.9,5.8,30.35,SSW,194,0.0,0.0,40,0.00,,---,0.00,VWS V14.00,2013-01-22 22:37:00,
2013-01-22 17:42:00,26.8,5.7,30.35,SSE,167,1.0,6.0,40,0.00,,---,0.00,VWS V14.00,2013-01-22 22:42:00,
2013-01-22 17:47:00,26.7,6.2,30.35,SSE,167,0.0,6.0,41,0.00,,---,0.00,VWS V14.00,2013-01-22 22:47:00,
2013-01-22 17:52:00,26.5,5.5,30.35,SSE,167,0.0,6.0,40,0.00,,---,0.00,VWS V14.00,2013-01-22 22:52:00,
2013-01-22 17:57:00,26.4,5.4,30.35,South,191,2.0,6.0,40,0.00,,---,0.00,VWS V14.00,2013-01-22 22:57:00,
2013-01-22 18:02:00,26.3,5.3,30.35,SW,218,2.0,6.0,40,0.00,,---,0.00,VWS V14.00,2013-01-22 23:02:00,
2013-01-22 18:07:00,26.3,5.3,30.37,SE,136,1.0,3.0,40,0.00,,---,0.00,VWS V14.00,2013-01-22 23:07:00,
2013-01-22 18:12:00,26.3,5.3,30.36,WSW,246,0.0,5.0,40,0.00,,---,0.00,VWS V14.00,2013-01-22 23:12:00,
2013-01-22 18:17:00,26.2,6.2,30.37,SW,216,0.0,5.0,42,0.00,,---,0.00,VWS V14.00,2013-01-22 23:17:00,
2013-01-22 18:22:00,26.2,5.7,30.37,SW,221,0.0,5.0,41,0.00,,---,0.00,VWS V14.00,2013-01-22 23:22:00,
2013-01-22 18:27:00,26.2,5.7,30.38,WSW,240,4.0,5.0,41,0.00,,---,0.00,VWS V14.00,2013-01-22 23:27:00,
2013-01-22 18:32:00,26.1,5.6,30.38,SSW,203,0.0,5.0,41,0.00,,---,0.00,VWS V14.00,2013-01-22 23:32:00,
2013-01-22 18:37:00,26.0,5.0,30.38,SW,236,0.0,0.0,40,0.00,,---,0.00,VWS V14.00,2013-01-22 23:37:00,
2013-01-22 18:42:00,26.0,5.0,30.38,SSE,158,3.0,7.0,40,0.00,,---,0.00,VWS V14.00,2013-01-22 23:42:00,
2013-01-22 18:47:00,25.9,4.4,30.38,WSW,246,0.0,7.0,39,0.00,,---,0.00,VWS V14.00,2013-01-22 23:47:00,
2013-01-22 18:52:00,25.7,4.7,30.37,WSW,244,0.0,7.0,40,0.00,,---,0.00,VWS V14.00,2013-01-22 23:52:00,
2013-01-22 18:57:00,25.6,4.6,30.38,SW,222,0.0,7.0,40,0.00,,---,0.00,VWS V14.00,2013-01-22 23:57:00,
2013-01-22 19:02:00,25.4,5.0,30.38,SW,224,1.0,7.0,41,0.00,,---,0.00,VWS V14.00,2013-01-23 00:02:00,
2013-01-22 19:07:00,25.2,4.3,30.39,South,180,4.0,4.0,40,0.00,,---,0.00,VWS V14.00,2013-01-23 00:07:00,
2013-01-22 19:12:00,24.9,4.5,30.39,South,172,3.0,5.0,41,0.00,,---,0.00,VWS V14.00,2013-01-23 00:12:00,
2013-01-22 19:17:00,24.7,4.4,30.39,South,172,3.0,5.0,41,0.00,,---,0.00,VWS V14.00,2013-01-23 00:17:00,
2013-01-22 19:22:00,24.5,4.7,30.39,South,185,0.0,5.0,42,0.00,,---,0.00,VWS V14.00,2013-01-23 00:22:00,
2013-01-22 19:27:00,24.4,4.6,30.39,South,185,0.0,5.0,42,0.00,,---,0.00,VWS V14.00,2013-01-23 00:27:00,
2013-01-22 19:32:00,24.3,5.5,30.39,South,185,0.0,5.0,44,0.00,,---,0.00,VWS V14.00,2013-01-23 00:32:00,
2013-01-22 19:37:00,24.2,4.9,30.40,South,185,0.0,1.0,43,0.00,,---,0.00,VWS V14.00,2013-01-23 00:37:00,
2013-01-22 19:42:00,24.0,4.8,30.41,South,189,2.0,3.0,43,0.00,,---,0.00,VWS V14.00,2013-01-23 00:42:00,
2013-01-22 19:47:00,23.9,4.7,30.41,SE,134,0.0,6.0,43,0.00,,---,0.00,VWS V14.00,2013-01-23 00:47:00,
2013-01-22 19:52:00,23.9,5.7,30.41,South,185,0.0,6.0,45,0.00,,---,0.00,VWS V14.00,2013-01-23 00:52:00,
2013-01-22 19:57:00,23.9,5.2,30.41,SSE,160,2.0,6.0,44,0.00,,---,0.00,VWS V14.00,2013-01-23 00:57:00,
2013-01-22 20:02:00,23.9,5.2,30.41,NW,323,0.0,6.0,44,0.00,,---,0.00,VWS V14.00,2013-01-23 01:02:00,
2013-01-22 20:07:00,23.9,5.2,30.40,SE,134,0.0,2.0,44,0.00,,---,0.00,VWS V14.00,2013-01-23 01:07:00,
2013-01-22 20:12:00,24.2,4.9,30.40,SE,125,2.0,7.0,43,0.00,,---,0.00,VWS V14.00,2013-01-23 01:12:00,
2013-01-22 20:17:00,24.3,6.0,30.39,SW,222,5.0,7.0,45,0.00,,---,0.00,VWS V14.00,2013-01-23 01:17:00,
2013-01-22 20:22:00,24.5,5.2,30.40,SE,135,3.0,7.0,43,0.00,,---,0.00,VWS V14.00,2013-01-23 01:22:00,
2013-01-22 20:27:00,24.7,5.4,30.39,SSE,163,3.0,9.0,43,0.00,,---,0.00,VWS V14.00,2013-01-23 01:27:00,
2013-01-22 20:32:00,24.8,5.5,30.39,SSE,167,2.0,9.0,43,0.00,,---,0.00,VWS V14.00,2013-01-23 01:32:00,
2013-01-22 20:37:00,24.8,5.5,30.40,SE,128,4.0,4.0,43,0.00,,---,0.00,VWS V14.00,2013-01-23 01:37:00,
2013-01-22 20:42:00,24.9,5.6,30.39,South,186,2.0,5.0,43,0.00,,---,0.00,VWS V14.00,2013-01-23 01:42:00,
2013-01-22 20:47:00,24.9,6.1,30.40,SSE,156,4.0,10.0,44,0.00,,---,0.00,VWS V14.00,2013-01-23 01:47:00,
2013-01-22 20:52:00,24.9,5.6,30.39,East,90,0.0,10.0,43,0.00,,---,0.00,VWS V14.00,2013-01-23 01:52:00,
2013-01-22 20:57:00,24.9,5.6,30.39,South,182,2.0,10.0,43,0.00,,---,0.00,VWS V14.00,2013-01-23 01:57:00,
2013-01-22 21:02:00,24.9,6.1,30.39,South,191,2.0,10.0,44,0.00,,---,0.00,VWS V14.00,2013-01-23 02:02:00,
2013-01-22 21:07:00,24.9,5.6,30.38,SSW,195,3.0,4.0,43,0.00,,---,0.00,VWS V14.00,2013-01-23 02:07:00,
2013-01-22 21:12:00,24.9,6.1,30.38,SSW,203,5.0,6.0,44,0.00,,---,0.00,VWS V14.00,2013-01-23 02:12:00,
2013-01-22 21:17:00,24.9,6.1,30.38,ESE,119,3.0,7.0,44,0.00,,---,0.00,VWS V14.00,2013-01-23 02:17:00,
2013-01-22 21:22:00,24.9,6.6,30.37,SSW,213,2.0,7.0,45,0.00,,---,0.00,VWS V14.00,2013-01-23 02:22:00,
2013-01-22 21:27:00,24.9,6.6,30.38,South,186,0.0,7.0,45,0.00,,---,0.00,VWS V14.00,2013-01-23 02:27:00,
2013-01-22 21:32:00,24.9,5.6,30.38,SW,214,0.0,7.0,43,0.00,,---,0.00,VWS V14.00,2013-01-23 02:32:00,
2013-01-22 21:37:00,24.9,6.6,30.38,South,182,5.0,5.0,45,0.00,,---,0.00,VWS V14.00,2013-01-23 02:37:00,
2013-01-22 21:42:00,24.8,6.5,30.38,South,180,0.0,5.0,45,0.00,,---,0.00,VWS V14.00,2013-01-23 02:42:00,
2013-01-22 21:47:00,24.8,6.5,30.38,South,169,0.0,6.0,45,0.00,,---,0.00,VWS V14.00,2013-01-23 02:47:00,
2013-01-22 21:52:00,24.7,6.4,30.38,SSE,163,0.0,6.0,45,0.00,,---,0.00,VWS V14.00,2013-01-23 02:52:00,
2013-01-22 21:57:00,24.7,6.4,30.38,SSE,164,1.0,6.0,45,0.00,,---,0.00,VWS V14.00,2013-01-23 02:57:00,
2013-01-22 22:02:00,24.7,5.9,30.38,SSW,212,3.0,6.0,44,0.00,,---,0.00,VWS V14.00,2013-01-23 03:02:00,
2013-01-22 22:07:00,24.6,5.8,30.37,SSE,161,4.0,5.0,44,0.00,,---,0.00,VWS V14.00,2013-01-23 03:07:00,
2013-01-22 22:12:00,24.5,5.2,30.37,South,186,0.0,9.0,43,0.00,,---,0.00,VWS V14.00,2013-01-23 03:12:00,
2013-01-22 22:17:00,24.5,6.7,30.37,South,190,0.0,9.0,46,0.00,,---,0.00,VWS V14.00,2013-01-23 03:17:00,
2013-01-22 22:23:00,24.5,5.7,30.37,South,183,1.0,9.0,44,0.00,,---,0.00,VWS V14.00,2013-01-23 03:23:00,
2013-01-22 22:28:00,24.5,5.7,30.38,SW,235,0.0,9.0,44,0.00,,---,0.00,VWS V14.00,2013-01-23 03:28:00,
2013-01-22 22:33:00,24.4,5.6,30.38,West,275,0.0,9.0,44,0.00,,---,0.00,VWS V14.00,2013-01-23 03:33:00,
2013-01-22 22:38:00,24.4,5.6,30.37,WNW,291,2.0,3.0,44,0.00,,---,0.00,VWS V14.00,2013-01-23 03:38:00,
2013-01-22 22:43:00,24.5,5.7,30.37,West,266,3.0,7.0,44,0.00,,---,0.00,VWS V14.00,2013-01-23 03:43:00,
2013-01-22 22:48:00,24.5,5.7,30.37,SW,220,0.0,7.0,44,0.00,,---,0.00,VWS V14.00,2013-01-23 03:48:00,
2013-01-22 22:53:00,24.6,5.8,30.36,SW,232,0.0,7.0,44,0.00,,---,0.00,VWS V14.00,2013-01-23 03:53:00,
2013-01-22 22:58:00,24.7,5.9,30.36,WSW,251,1.0,7.0,44,0.00,,---,0.00,VWS V14.00,2013-01-23 03:58:00,
2013-01-22 23:03:00,24.7,5.9,30.36,South,190,0.0,7.0,44,0.00,,---,0.00,VWS V14.00,2013-01-23 04:03:00,
2013-01-22 23:08:00,24.7,5.9,30.36,SSW,207,2.0,2.0,44,0.00,,---,0.00,VWS V14.00,2013-01-23 04:08:00,
2013-01-22 23:13:00,24.7,6.4,30.35,SSW,208,0.0,2.0,45,0.00,,---,0.00,VWS V14.00,2013-01-23 04:13:00,
2013-01-22 23:18:00,24.8,6.5,30.35,SSW,210,0.0,2.0,45,0.00,,---,0.00,VWS V14.00,2013-01-23 04:18:00,
2013-01-22 23:23:00,24.8,6.5,30.35,SW,216,1.0,3.0,45,0.00,,---,0.00,VWS V14.00,2013-01-23 04:23:00,
2013-01-22 23:28:00,24.8,7.0,30.35,South,178,0.0,4.0,46,0.00,,---,0.00,VWS V14.00,2013-01-23 04:28:00,
2013-01-22 23:33:00,24.9,7.5,30.35,South,175,0.0,4.0,47,0.00,,---,0.00,VWS V14.00,2013-01-23 04:33:00,
2013-01-22 23:38:00,24.9,7.1,30.36,South,175,2.0,3.0,46,0.00,,---,0.00,VWS V14.00,2013-01-23 04:38:00,
2013-01-22 23:43:00,25.0,8.1,30.36,South,175,0.0,3.0,48,0.00,,---,0.00,VWS V14.00,2013-01-23 04:43:00,
2013-01-22 23:48:00,25.1,8.6,30.36,South,175,0.0,3.0,49,0.00,,---,0.00,VWS V14.00,2013-01-23 04:48:00,
2013-01-22 23:53:00,25.3,8.4,30.36,SSW,192,0.0,6.0,48,0.00,,---,0.00,VWS V14.00,2013-01-23 04:53:00,
2013-01-22 23:58:00,25.4,8.0,30.36,ESE,114,1.0,7.0,47,0.00,,---,0.00,VWS V14.00,2013-01-23 04:58:00,